Regional Weather Roundup
Issued by NWS Upton, NY

Current Version | Previous Version | Graphics & Text | Print | Product List | Glossary Off
Versions: 1 2 3 4 5 6 7 8 9 10 11 12 13 14 15 16 17 18 19 20 21 22 23 24 25 26 27 28 29 30 31 32 33 34 35 36 37 38 39 40 41 42 43 44 45 46 47 48 49 50
299 ASUS41 KOKX 101104 RWROKX REGIONAL WEATHER ROUNDUP NATIONAL WEATHER SERVICE NEW YORK NY 600 AM EST WED FEB 10 2016 NOTE: "FAIR" INDICATES FEW OR NO CLOUDS BELOW 12,000 FEET WITH NO SIGNIFICANT WEATHER AND/OR OBSTRUCTIONS TO VISIBILITY. NYZ071-072-176-178-NJZ106-104-101200- NEW YORK CITY METRO AREA CITY SKY/WX TMP DP RH WIND PRES REMARKS CENTRAL PARK CLOUDY 33 27 78 CALM 29.61R LAGUARDIA APRT CLOUDY 35 28 75 SW8 29.59S WCI 29 KENNEDY INTL CLOUDY 34 30 85 SW9 29.61S WCI 27 NEWARK/LIBERTY CLOUDY 33 30 88 SW9 29.60R WCI 25 BRNX BOT. GARD N/A 34 28 80 S6 29.58S WCI 29 TETERBORO FLURRIES 33 28 81 S5 29.59R WCI 29 $$ NYZ177-179-078>081-101200- LONG ISLAND NEW YORK CITY SKY/WX TMP DP RH WIND PRES REMARKS FARMINGDALE CLOUDY 31 28 89 CALM 29.60S FOG ISLIP LGT SNOW 30 26 85 CALM 29.58S FOG SHIRLEY CLOUDY 28 25 88 CALM 29.60F FOG RIVERHEAD NOT AVBL WESTHAMPTON LGT SNOW 27 26 96 N3 29.62R FOG EAST HAMPTON LGT SNOW 26 25 96 CALM 29.60R MONTAUK POINT N/A 29 28 96 CALM 29.61S $$ NYZ052-065-067-101200- HUDSON VALLEY CITY SKY/WX TMP DP RH WIND PRES REMARKS WHITE PLAINS FOG 30 27 88 CALM 29.57R VSB 1 NEWBURGH CLOUDY 30 28 93 CALM 29.56 MONTGOMERY CLOUDY 31 28 89 SW9 29.55S FOG WCI 23 POUGHKEEPSIE CLOUDY 31 27 85 CALM 29.56S ALBANY FLURRIES 29 25 85 S5 29.55S WCI 24 $$ NJZ001-105-106-008-010-013-015-019>022-104-101200- NEW JERSEY CITY SKY/WX TMP DP RH WIND PRES REMARKS NEWARK/LIBERTY CLOUDY 33 30 88 SW9 29.60R WCI 25 TETERBORO FLURRIES 33 28 81 S5 29.59R WCI 29 CALDWELL CLOUDY 32 28 85 CALM 29.59S FOG MORRISTOWN LGT SNOW 30 28 93 CALM 29.59S SOMERVILLE LGT SNOW 31 29 92 CALM 29.59R FOG SUSSEX MIX PCPN 30 27 88 S5 29.56R FOG WCI 25 ANDOVER N/A 30 27 88 SW3 29.57R TRENTON LGT SNOW 31 27 85 W7 29.61R FOG WCI 24 MILLVILLE LGT SNOW 30 27 88 W13 29.67R FOG WCI 20 ATLANTIC CITY CLOUDY 32 28 85 W9 29.64R WCI 24 WRIGHTSTOWN FLURRIES 32 32 100 W8 29.61R WCI 25 TOMS RIVER CLOUDY 32 28 86 W9 29.63R WCI 24 BELMAR CLOUDY 32 25 74 W7 29.60S WCI 26 $$ PAZ047>061-062-071-101200- EASTERN PENNSYLVANIA CITY SKY/WX TMP DP RH WIND PRES REMARKS PHILADELPHIA LGT SNOW 31 27 85 W9 29.66R WCI 23 ALLENTOWN CLOUDY 30 26 85 SW7 29.60R FOG WCI 23 SCRANTON CLOUDY 29 26 89 SW10 29.56R WCI 20 $$ CTZ002-004>006-009-010-012-RIZ004-006-007-MAZ004-011-015-101200- SOUTHERN NEW ENGLAND IN CT CITY SKY/WX TMP DP RH WIND PRES REMARKS BRADLEY INTL LGT SNOW 25 23 92 S5 29.58R FOG WCI 19 HARTFORD LGT SNOW 27 25 92 CALM 29.60R FOG DANBURY CLOUDY 28 24 85 CALM 29.58S FOG WTRBRY/OXFORD CLOUDY 28 19 69 S3 29.56S BRIDGEPORT LGT SNOW 32 29 88 S5 29.60S FOG WCI 27 MERIDEN LGT SNOW 26 23 88 CALM 29.59S FOG NEW HAVEN LGT SNOW 28 26 92 CALM 29.59S FOG CHESTER CLOUDY 30 28 93 CALM 29.59R FOG GROTON LGT SNOW 26 25 96 N3 29.61R FOG WILLIMANTIC LGT SNOW 20 16 84 CALM 29.61R FOG IN RI CITY SKY/WX TMP DP RH WIND PRES REMARKS PROVIDENCE CLOUDY 24 21 88 CALM 29.62S BLOCK ISLAND CLOUDY 30 30 100 E3 29.59S WESTERLY CLOUDY 25 22 88 CALM 29.61S IN MA CITY SKY/WX TMP DP RH WIND PRES REMARKS BOSTON CLOUDY 26 20 77 S6 29.61S WCI 19 WORCESTER CLOUDY 20 18 92 SW8 29.54R FOG WCI 10 WESTFIELD LGT SNOW 22 20 92 CALM 29.58R FOG PROVINCETOWN CLOUDY 22 18 85 CALM 29.62S NANTUCKET CLOUDY 31 26 82 CALM 29.61R $$ ANZ330-335-338-340-345-350-353-355-101200- COASTAL MARINE OBSERVATIONS STATION/POSITION TIME SKY/WX TEMP WIND PRES VSBY WAVE AIR SEA DIR/SP/G HT/PER (UTC) (F) (DEG/KT/KT) (MB) (MI) (FT/S) NY HARB ENTRANCE 0950 34 43 220/ 4/ 6 1002.0 4/ 8 4S FIRE IS NOT AVBL 20S FIRE ISLAND 0950 35 44 330/ 6/ 8 1002.2 4/ 9 GREAT SOUTH BAY NOT AVBL 23SW MTP 1050 35 45 140/ 4/ 6 1001.9 4/11 HUDSON CANYON 0950 40 49 1001.0 5/10 KINGS POINT 1000 32 39 180/ 2/ 4 1001.6 EXECUTION ROCKS NOT AVBL CENTRAL LI SOUND 1000 32 230/ 6/ 8 N/A 0 EASTERN LI SOUND 1000 32 42 20/ 4/ 6 N/A ROBBINS REEF 1000 33 250/ 7/ 8 1001.4 $$ >>>>>>>>>>>>>>>>>>>>>>>>>>>> KEY <<<<<<<<<<<<<<<<<<<<<<<<<<< > < > SKY/WX - SKY CONDITION/PRESENT WEATHER < > TMP - TEMPERATURE IN FAHRENHEIT < > DP - DEWPOINT IN FAHRENHEIT < > RH - RELATIVE HUMIDITY IN PERCENT < > WIND - DIRECTION AND SPEED IN MPH < > PRES - MEAN SEA LEVEL PRESSURE IN INCHES OF HG < > WCI - WIND CHILL INDEX < > VSB - VISIBILITY IN MILES < > HX - HEAT INDEX < > TC - TEMPERATURE IN CELSIUS < > VRB - VARIABLE WIND DIRECTION < > < >>>>>>>>>>>>>>>>>>>>>>>>>>>> KEY <<<<<<<<<<<<<<<<<<<<<<<<<<<

USA.gov is the U.S. government's official web portal to all federal, state and local government web resources and services.